Weather Roundup
Issued by NWS Chicago, IL

Home | Current Version | Previous Version | Graphics & Text | Print | Product List | Glossary On
Versions: 1 2 3 4 5 6 7 8 9 10 11 12 13 14 15 16 17 18 19 20 21 22 23 24 25 26 27 28 29 30 31 32 33 34 35 36 37 38 39 40 41 42 43 44 45 46 47 48 49 50
000
NZUS59 KLOT 270621
HRRLOT

CHICAGO AREA WEATHER ROUNDUP
NATIONAL WEATHER SERVICE CHICAGO/ROMEOVILLE IL
100 AM CDT MON APR 27 2015

NOTE: "FAIR" INDICATES FEW OR NO CLOUDS BELOW 12,000 FEET WITH NO
SIGNIFICANT WEATHER AND/OR OBSTRUCTIONS TO VISIBILITY.

* THESE STATIONS ARE NOT UNDER NWS QUALITY CONTROL. THEY ALSO MAY NOT
  REPORT WEATHER SUCH AS PRECIPITATION OR FOG.

ILZ005-006-012>014-019>023-270700-
NORTHEAST ILLINOIS

CITY           SKY/WX    TMP DP  RH WIND       PRES   REMARKS
OHARE          CLEAR     42  30  62 N12       30.05S
6HR MIN TEMP:  42; 6HR MAX TEMP:  49;

MIDWAY         CLEAR     46  31  55 N14       30.05R
6HR MIN TEMP:  45; 6HR MAX TEMP:  50;

AURORA         CLEAR     38  27  64 N6        30.07S
6HR MIN TEMP:  36; 6HR MAX TEMP:  54;

LANSING*       CLEAR     43  32  65 N12       30.04S
JOLIET*        CLEAR     42  29  60 N5        30.06S
WAUKEGAN       CLEAR     41  31  67 N9        30.06S
6HR MIN TEMP:  40; 6HR MAX TEMP:  46;

DUPAGE AIRPORT CLEAR     36  28  73 N7        30.06R
6HR MIN TEMP:  35; 6HR MAX TEMP:  51;

WHEELING       CLEAR     41  29  62 N7        30.08R
6HR MIN TEMP:  40; 6HR MAX TEMP:  47;

KANKAKEE*      CLEAR     42  31  64 NW7       30.05R
MORRIS*        CLEAR     38  29  71 CALM      30.03F
LEWIS AIRPORT* CLEAR     39  28  64 N7        30.05S
NORTHERLY IS     N/A     44  33  65 N15         N/A
$$

WIZ051-052-058>065-066-070>072-270700-
SOUTHEAST WISCONSIN

CITY           SKY/WX    TMP DP  RH WIND       PRES   REMARKS
MILWAUKEE      CLEAR     41  30  65 N8        30.09R
6HR MIN TEMP:  41; 6HR MAX TEMP:  45;

KENOSHA*       CLEAR     40  31  70 N7        30.07S
RACINE*        CLEAR     40  31  70 N12       30.09R
BURLINGTON     CLEAR     33  28  80 CALM      30.09R
WAUKESHA       CLEAR     36  30  80 NW3       30.10S
WEST BEND      CLEAR     36  30  80 CALM      30.08S
$$

INZ001>003-010>013-019-020-270700-
NORTHWEST INDIANA

CITY           SKY/WX    TMP DP  RH WIND       PRES   REMARKS
GARY*          CLEAR     44  31  62 N18G24    30.05S
6HR MIN TEMP:  43; 6HR MAX TEMP:  47;

MICHIGAN CITY* NOT AVBL
RENSSELAER*    NOT AVBL
VALPARAISO     CLEAR     39  32  76 NW8       30.02R
$$

LMZ740>746-270700-
SOUTHERN LAKE MICHIGAN

STATION/POSITION TIME  SKY/WX   TEMP WIND        PRES    VSBY
                                AIR  DIR/SP/G
                 (UTC)          (F)  (DEG/KT/KT) (MB)    (MI)
HARRISON CRIB    0600            42  340/ 20/ 23   N/A
BURNHAM HARBOR   0600            44  330/ 14/ 20   N/A
CALUMET HARBOR   0500            44  340/ 12/ 18   N/A
BURNS HARBOR     0540            42  350/ 18/ 23 1016.9S
MICHIGAN CITY    0600            40  350/ 12/ 15   N/A
$$

ABBREVIATIONS USED IN REMARKS
   TC - TEMPERATURE IN CELSIUS
  WCI - WIND CHILL INDEX
   HX - HEAT INDEX
  VSB - VISIBILITY
$$


USA.gov is the U.S. government's official web portal to all federal, state and local government web resources and services.